This is the latest recevied weather packets stored in our database for station/object WK1F-2. If no packets are shown the sender has not sent any weather packets the latest 10 day(s).
| Time | Temp. | Humidity | Pressure | Rain* | Wind** | Luminosity | Snow |
|---|---|---|---|---|---|---|---|
| 1778070449 | 20.56° C | 85% | 1016.5 hPa | 0 mm | - | - | - |
| 1778070150 | 20° C | 86% | 1016.5 hPa | 0 mm | - | - | - |
| 1778069849 | 20° C | 87% | 1016.5 hPa | 0 mm | - | - | - |
| 1778069550 | 19.44° C | 88% | 1016.4 hPa | 0 mm | - | - | - |
| 1778069250 | 18.89° C | 89% | 1016.2 hPa | 0 mm | - | - | - |
| 1778068949 | 18.89° C | 90% | 1016.3 hPa | 0 mm | - | - | - |
| 1778068649 | 18.33° C | 91% | 1016.3 hPa | 0 mm | - | - | - |
| 1778068349 | 18.33° C | 92% | 1016.2 hPa | 0 mm | - | - | - |
| 1778068049 | 17.78° C | 92% | 1016.1 hPa | 0 mm | - | - | - |
| 1778067749 | 17.78° C | 92% | 1016.1 hPa | 0 mm | - | - | - |
| 1778067449 | 17.22° C | 92% | 1016.2 hPa | 0 mm | - | - | - |
| 1778067149 | 17.22° C | 92% | 1016 hPa | 0 mm | - | - | - |
| 1778066849 | 16.67° C | 92% | 1016 hPa | 0 mm | - | - | - |
| 1778066549 | 16.67° C | 92% | 1016 hPa | 0 mm | - | - | - |
| 1778066249 | 16.67° C | 92% | 1015.9 hPa | 0 mm | - | - | - |
| 1778065949 | 16.67° C | 92% | 1015.7 hPa | 0 mm | - | - | - |
| 1778065649 | 16.11° C | 92% | 1015.6 hPa | 0 mm | - | - | - |
| 1778065349 | 16.11° C | 91% | 1015.6 hPa | 0 mm | - | - | - |
| 1778065049 | 16.11° C | 91% | 1015.5 hPa | 0 mm | - | - | - |
| 1778064749 | 16.11° C | 91% | 1015.5 hPa | 0 mm | - | - | - |
| 1778064449 | 16.11° C | 91% | 1015.5 hPa | 0 mm | - | - | - |
| 1778064149 | 16.11° C | 90% | 1015.6 hPa | 0 mm | - | - | - |
| 1778063849 | 16.11° C | 90% | 1015.7 hPa | 0 mm | - | - | - |
| 1778063549 | 16.67° C | 90% | 1015.6 hPa | 0 mm | - | - | - |
| 1778063249 | 16.67° C | 90% | 1015.6 hPa | 0 mm | - | - | - |
* Rain latest hour (hover to see other rain measurements)
** Current wind speed in m/s (hover to see current wind gust speed)